#timestamp,LO_Frequency,Hit,StdDev 
1596765615.3,286047005.0,P
1596765635.1,286047007.0,P
1596765636.0,286047007.0,Y
1596765655.8,286046998.5,P
1596765675.7,286047004.2,N
1596765695.5,286047002.0,N
1596765715.3,286047000.7,N
1596765735.2,286047000.8,N
1596765755.0,286046997.0,N
1596765755.9,286046997.0,N
1596765775.8,286046997.9,N
1596765795.6,286046999.6,N
1596765815.4,286046999.0,N
1596765835.3,286046998.3,N
1596765855.1,286046998.6,N
1596765875.8,286046997.6,N
1596765895.7,286046996.0,N
1596765915.5,286046993.6,N
1596765935.4,286046995.5,N
1596765955.2,286046998.5,N
1596765975.0,286047000.5,N
1596765975.9,286047000.5,N
1596765995.8,286046996.0,N
1596766015.6,286046994.3,N
1596766035.5,286046995.8,N
1596766055.3,286046995.5,N
1596766075.1,286046997.4,N
1596766095.9,286047000.9,N
1596766115.7,286047000.1,N
1596766135.6,286047005.4,N
1596766155.4,286047005.9,N
1596766175.3,286047002.0,N
1596766195.1,286047003.9,N
1596766215.9,286047004.0,N
1596766235.7,286047006.3,N
1596766255.6,286047009.4,N
1596766275.4,286047012.3,Y
1596766295.2,286047010.5,P
1596766315.1,286047008.3,N
1596766335.2,286047007.1,N
1596766355.1,286047004.9,N
1596766356.0,286047004.9,N
1596766375.6,286047006.7,N
1596766395.5,286047007.1,N
1596766415.3,286047006.7,N
1596766435.3,286047009.6,Y
1596766455.1,286047005.2,P
1596766456.0,286047005.2,P
1596766475.8,286047004.9,P
1596766495.7,286047008.5,Y
1596766515.5,286047001.6,P
1596766535.4,286047000.7,N
1596766555.2,286046999.8,N
1596766575.0,286047001.3,N
1596766575.9,286047001.3,N
1596766595.8,286047002.1,N
1596766615.6,286047001.5,N
1596766635.4,286047001.4,N
1596766655.3,286047000.7,N
1596766675.1,286047001.0,N
1596766695.9,286047001.9,N
1596766715.7,286046999.8,N
1596766735.5,286047003.5,N
1596766755.4,286047003.7,N
1596766775.2,286047002.9,N
1596766795.0,286047004.3,N
1596766795.9,286047004.3,N
1596766815.8,286047003.4,N
1596766835.6,286047002.9,N
1596766855.5,286047004.1,N
1596766875.3,286047006.7,Y
1596766895.1,286047009.0,P
1596766915.9,286047007.0,N
1596766935.7,286047007.5,N
1596766955.6,286047007.1,N
1596766975.4,286047007.6,Y
1596766995.2,286047000.4,P
1596767015.1,286047002.8,N
1596767016.0,286047002.8,N
1596767035.8,286047000.3,N
1596767055.7,286046999.1,N
1596767075.5,286046997.2,N
1596767095.3,286047000.8,N
1596767115.2,286047003.3,N
1596767135.9,286047004.3,N
1596767155.7,286047007.1,N
1596767175.6,286047006.4,N
1596767195.4,286047004.9,N
1596767215.3,286047007.6,N
1596767235.1,286047006.2,N
1596767236.0,286047006.2,N
1596767255.8,286047006.1,N
1596767275.7,286047007.0,N
1596767295.5,286047004.2,N
1596767315.4,286047000.9,N
1596767335.2,286046999.5,N
1596767355.0,286046996.8,N
1596767355.9,286046996.8,N
1596767375.8,286047001.2,N
1596767395.6,286046997.7,N
1596767415.4,286046995.1,N
1596767435.3,286046993.8,N
1596767455.1,286046995.1,N
1596767475.9,286046995.7,N
1596767495.7,286046995.9,N
1596767515.5,286047004.4,N
1596767535.4,286046999.8,N
1596767555.2,286047002.1,N
1596767575.0,286047005.7,N
1596767575.9,286047005.7,N
1596767595.8,286047005.6,N
1596767615.6,286047005.5,N
1596767635.5,286047008.4,N
1596767655.3,286047010.5,N
1596767675.1,286047011.3,N
1596767695.9,286047016.8,Y
1596767715.7,286047013.3,P
1596767735.5,286047009.7,N
1596767755.4,286047008.3,N
1596767775.2,286047008.3,N
1596767795.1,286047009.6,N
1596767796.0,286047009.6,Y
1596767815.8,286047000.8,P
1596767835.6,286046997.3,N
1596767855.5,286046998.4,N
1596767875.3,286046998.5,N
1596767895.2,286047000.7,N
1596767915.9,286047001.8,N
1596767935.7,286047004.0,N
1596767955.6,286047001.9,N
1596767975.4,286047001.8,N
1596767995.2,286047002.0,N
1596768015.1,286047004.3,N
1596768016.0,286047004.3,N
1596768035.8,286047003.6,N
1596768055.7,286047004.2,N
1596768075.5,286047001.3,N
1596768095.3,286047003.1,N
1596768115.2,286047001.5,N
1596768135.9,286047003.1,N
1596768155.7,286047003.5,N
1596768175.6,286047002.1,N
1596768195.4,286047003.3,N
1596768215.2,286047003.4,N
1596768235.1,286047001.7,N
1596768236.0,286047001.7,N
1596768255.8,286047001.7,N
1596768275.7,286047003.1,N
1596768295.5,286046999.8,N
1596768315.3,286047000.9,N
1596768335.2,286047000.7,N
1596768355.0,286046999.5,N
1596768355.9,286046999.5,N
1596768375.7,286046995.1,N
1596768395.6,286046995.9,N
1596768415.4,286046999.2,N
1596768435.3,286047002.6,N
1596768455.1,286046997.0,N
1596768456.0,286046997.0,N
1596768475.8,286046998.1,N
1596768495.7,286046999.9,N
1596768515.5,286047000.6,N
1596768535.3,286046998.3,N
1596768555.2,286047000.6,N
1596768575.0,286047002.7,N
1596768575.9,286047002.7,N
1596768595.8,286047003.9,N
1596768615.6,286047005.3,N
1596768635.4,286047006.0,N
1596768655.3,286047006.9,N
1596768675.1,286047006.4,N
1596768695.8,286047009.0,Y
1596768715.7,286047009.8,P
1596768735.5,286047012.3,N
1596768755.4,286047011.8,N
1596768775.2,286047012.2,N
1596768795.0,286047010.1,N
1596768795.9,286047010.1,N
1596768815.8,286047009.8,N
1596768835.6,286047010.8,Y
1596768855.4,286046998.4,P
1596768875.3,286046998.1,N
1596768895.1,286046998.9,N
1596768915.9,286047000.3,N
1596768935.7,286047004.0,N
1596768955.5,286047005.0,N
1596768975.4,286047006.8,N
1596768995.2,286047013.9,Y
1596769015.0,286047009.2,P
1596769015.9,286047009.2,N
1596769035.8,286047005.0,N
1596769055.6,286047008.6,Y
1596769075.5,286046994.9,P
1596769095.3,286046991.7,N
1596769115.1,286046991.9,N
1596769135.9,286046992.1,N
1596769155.7,286046994.6,N
1596769175.5,286046995.8,N
1596769195.4,286046997.6,N
